Zurück zum Katalog

STARLINK-2104

AktivKommunikationVLEO
NORAD 47384·PAYLOAD·🇺🇸 United States

Gestartet Jan 20, 2021 von Cape Canaveral Space Force Station

Loading…

Nächste Überflüge (nächste 24 Stunden)

TLE

AktuellSource: CelesTrak SupGP

Epoche: Sep 15, 2026, 02:40 UTC

1 47384C 21005AM  26258.11159722 -.00021968  00000+0 -70657-3 0  2588
2 47384  53.1581 235.9046 0001351  96.0441 164.5199 15.31706384    18

Verfolge STARLINK-2104 in Echtzeit mit AllMySat

Download on the App Store